This demonstration page uses our WeatherBlox Daily Observations layout. Learn more.

Left ArrowRight Arrow

39.08367, -84.50855

Hourly Observations for February 26, 2016

Temp ( °F °C ) Dew Point ( °F °C ) Humidity (%) Winds ( mph kmh ) Pressure ( in mb ) Visibility ( mi km ) Precip ( " mm )
12:53 am 00:53 Cloudy 33 0.6 24 -4.4 70 70 NW 7 11 30.16 1021 10 16 N/A
1:53 am 01:53 Cloudy 33 0.6 23 -5 66 66 NW 12 19 30.17 1022 10 16 N/A
2:53 am 02:53 Cloudy 32 undefined 21 -6.1 64 64 NNW 13 20 30.19 1022 10 16 N/A
3:53 am 03:53 Cloudy 32 undefined 21 -6.1 64 64 NNW 10 17 30.19 1023 10 16 N/A
4:53 am 04:53 Cloudy 32 undefined 20 -6.7 61 61 NNW 5 7 30.21 1023 10 16 N/A
5:49 am 05:49 Cloudy with Light Snow 30 -1 25 -4 80 80 NNW 6 9 30.24 1024 9 14 N/A
5:53 am 05:53 Cloudy with Light Snow 31 -0.6 24 -4.4 76 76 NW 7 11 30.23 1024 8 13 N/A
6:53 am 06:53 Cloudy 32 undefined 24 -4.4 73 73 VRB 3 6 30.24 1024 10 16 N/A
7:53 am 07:53 Cloudy with Light Snow 32 undefined 24 -4.4 73 73 NW 5 7 30.27 1025 7 11 N/A
8:20 am 08:20 Cloudy 32 undefined 25 -3.9 75 75 N N/A 30.30 1026 9 14 N/A
8:53 am 08:53 Cloudy 32 undefined 25 -3.9 75 75 NW 5 7 30.29 1026 9 14 N/A
9:03 am 09:03 Cloudy 34 1 25 -4 70 70 W 7 11 30.30 1026 9 14 N/A
9:10 am 09:10 Cloudy 33 0.6 25 -3.9 72 72 WNW 7 11 30.30 1026 10 16 N/A
9:26 am 09:26 Cloudy 34 1 23 -5 65 65 NW 9 15 30.33 1027 10 16 N/A
9:53 am 09:53 Cloudy 33 0.6 24 -4.4 70 70 WNW 10 17 30.30 1026 10 16 N/A
10:00 am 10:00 Cloudy 34 1 25 -4 70 70 NW 7 11 30.33 1027 10 16 N/A
10:49 am 10:49 Cloudy 34 1 28 -2 81 81 ENE 7 11 30.33 1027 10 16 N/A
10:53 am 10:53 Cloudy 34 1.1 27 -2.8 76 76 NE 9 15 30.31 1026 10 16 N/A
11:53 am 11:53 Cloudy 34 1.1 27 -2.8 76 76 N 7 11 30.32 1027 10 16 N/A
12:53 pm 12:53 Cloudy 36 2.2 24 -4.4 62 62 NNW 6 9 30.30 1026 10 16 N/A
1:53 pm 13:53 Cloudy 35 1.7 25 -3.9 67 67 N 7 11 30.28 1026 10 16 N/A
2:53 pm 14:53 Cloudy 36 2.2 24 -4.4 62 62 N N/A 30.27 1025 10 16 N/A
3:53 pm 15:53 Cloudy 36 2.2 24 -4.4 62 62 N N/A 30.26 1025 10 16 N/A
4:53 pm 16:53 Cloudy 36 2.2 24 -4.4 62 62 N N/A 30.25 1025 10 16 N/A
5:53 pm 17:53 Mostly Cloudy 36 2.2 21 -6.1 55 55 W 6 9 30.24 1024 10 16 N/A
6:53 pm 18:53 Cloudy 35 1.7 21 -6.1 57 57 N N/A 30.24 1024 10 16 N/A
7:53 pm 19:53 Mostly Cloudy 33 0.6 25 -3.9 72 72 N N/A 30.23 1024 10 16 N/A
8:53 pm 20:53 Cloudy 33 0.6 25 -3.9 72 72 N N/A 30.22 1023 10 16 N/A
9:53 pm 21:53 Cloudy 33 0.6 26 -3.3 75 75 N N/A 30.23 1024 10 16 N/A
10:53 pm 22:53 Cloudy 33 0.6 27 -2.8 78 78 N N/A 30.23 1024 10 16 N/A
11:53 pm 23:53 Cloudy 33 0.6 25 -3.9 72 72 SW 3 6 30.22 1023 10 16 N/A

Powered by AerisWeather